STARLINK-32392 (61214 NORAD) Tracking and Keplerian Element Data

This shows tracking and keplerian element data for the satellite.

Feedback or suggestion? Click here.




ElementValue
Catalog61214
NameSTARLINK-32392
Epoch Orbit477
Epoch Day286.91668981
Epoch Year2024
RAAN186.5886
Inclination53.1595
Eccentricity4.86E-05
Argument of Perigee108.3765
Mean Anonmoly25.7567
Mean Motion15.49342185
Decay Rate-0.00059238
L11 61214U 24171Q 24286.91668981 -.00059238 00000+0 -10639-2 0 9998
L22 61214 53.1595 186.5886 0000486 108.3765 25.7567 15.49342185 4776



Live tracking and technical data element details for STARLINK-32392 (NORAD 61214). STARLINK-32392 can be tracked NOW for your location showing map with azimuth and elevation plus other details from your city location.







IsCatalogInMostPopularTable: catalog: 61214, numindb: 24
Update: records affected: 1



GetName: 61214 STARLINK-32392

Hit Count: updated at: Wed, 04 Dec 2024 13:32:32 GMT